EDT,Max TemperatureF,Mean TemperatureF,Min TemperatureF,Max Dew PointF,MeanDew PointF,Min DewpointF,Max Humidity, Mean Humidity, Min Humidity, Max Sea Level PressureIn, Mean Sea Level PressureIn, Min Sea Level PressureIn, Max VisibilityMiles, Mean VisibilityMiles, Min VisibilityMiles, Max Wind SpeedMPH, Mean Wind SpeedMPH, Max Gust SpeedMPH,PrecipitationIn, CloudCover, Events, WindDirDegrees
2013-5-1,71,56,41,58,46,35,90,66,42,30.31,30.11,29.84,10,10,10,21,11,28,0.00,1,,345
2013-5-2,57,48,38,44,38,33,90,76,57,30.32,30.26,30.19,10,10,10,15,9,25,0.00,2,,345
2013-5-3,59,48,36,44,39,34,95,75,53,30.22,30.15,30.08,10,10,7,13,8,20,0.00,5,Rain,21
2013-5-4,68,54,40,47,43,38,95,68,45,30.15,30.11,30.08,10,10,10,14,4,20,0.00,0,,73
2013-5-5,71,54,36,43,38,35,96,59,29,30.15,30.11,30.07,10,10,7,12,4,16,0.00,0,,61
2013-5-6,70,52,35,45,39,33,99,60,26,30.12,30.08,30.02,10,10,2,8,2,,0.00,0,,328
2013-5-7,76,57,38,42,37,30,91,50,20,30.12,30.06,30.03,10,10,10,9,5,,0.00,0,,75
2013-5-8,76,60,43,43,36,29,83,45,17,30.05,30.01,29.98,10,10,7,8,3,,0.00,1,,231
2013-5-9,65,53,41,45,39,33,90,64,45,30.07,30.00,29.95,10,10,5,15,4,23,0.00,3,Rain,359
2013-5-10,44,40,37,39,36,34,93,85,73,30.07,30.01,29.95,10,10,7,14,9,23,0.00,8,Rain,44
2013-5-11,43,37,31,38,33,29,98,86,61,29.94,29.81,29.73,10,8,1,14,4,26,0.00,5,Rain-Snow,274
2013-5-12,39,36,32,34,28,22,93,72,54,30.06,29.92,29.75,10,9,2,21,14,32,0.00,7,Rain-Snow,301
2013-5-13,47,40,33,28,25,19,80,55,34,30.14,30.08,30.01,10,10,10,17,8,24,0.00,1,,249
2013-5-14,59,49,39,41,35,22,87,62,38,30.01,29.81,29.59,10,10,10,16,9,24,0.00,3,Rain,109
2013-5-15,67,55,43,46,41,36,89,61,39,29.76,29.64,29.44,10,10,7,14,8,25,0.00,0,,235
2013-5-16,60,48,35,39,37,33,93,62,43,30.09,29.93,29.74,10,10,10,10,5,16,0.00,0,,323
2013-5-17,64,50,37,42,39,35,93,67,44,30.21,30.16,30.10,10,10,10,12,4,16,0.00,1,,76
2013-5-18,63,52,40,45,42,38,91,71,50,30.19,30.13,30.02,10,10,7,17,5,,0.00,4,Rain,95
2013-5-19,76,65,54,58,49,43,75,60,49,30.01,29.95,29.87,10,10,10,12,6,20,0.00,4,Rain,130
2013-5-20,67,58,50,59,51,47,96,83,70,29.89,29.81,29.73,10,8,0,17,9,23,0.00,4,Fog-Rain,84
2013-5-21,62,56,49,56,51,48,97,93,78,29.79,29.73,29.69,10,6,0,16,11,23,0.00,8,Fog-Rain,79
2013-5-22,55,52,50,55,52,50,97,96,94,29.79,29.72,29.70,10,3,0,12,6,18,0.00,8,Fog-Rain,54
2013-5-23,51,45,39,50,36,31,95,74,53,30.27,30.05,29.80,10,10,7,21,12,30,0.00,3,Rain,355
2013-5-24,50,41,32,36,32,29,94,69,50,30.41,30.36,30.28,10,10,10,13,6,17,0.00,0,,314
2013-5-25,59,44,29,40,33,28,96,68,33,30.45,30.39,30.33,10,10,2,12,2,,0.00,0,,237
2013-5-26,63,47,31,41,32,27,97,59,27,30.39,30.32,30.24,10,10,5,9,2,,0.00,0,,211
2013-5-27,67,51,35,42,36,33,93,58,29,30.26,30.15,30.00,10,10,10,12,4,16,0.00,0,,86
2013-5-28,55,51,47,49,44,33,97,80,43,30.00,29.87,29.76,10,6,1,12,8,,0.00,7,Rain,87
2013-5-29,63,56,48,57,52,47,97,92,79,29.93,29.86,29.74,10,5,0,14,5,21,0.00,8,Fog,223
2013-5-30,81,66,50,64,59,50,96,75,53,29.93,29.89,29.84,10,8,0,18,6,28,0.00,2,Fog,167
2013-5-31,73,66,60,64,60,56,92,80,71,29.86,29.80,29.75,10,10,2,20,11,31,0.00,3,Rain,194